Regional Weather Roundup
Issued by NWS

Home | Current Version | Previous Version | Graphics & Text | Print | Product List | Glossary On
Versions: 1 2 3 4 5 6 7 8 9 10 11 12 13 14 15 16 17 18 19 20 21 22 23 24 25 26 27
000
ASUS45 KCYS 191310
RWRWY

WYOMING REGIONAL WEATHER ROUNDUP
NATIONAL WEATHER SERVICE CHEYENNE WY
700 AM MDT SAT APR 19 2014

NOTE:  "FAIR" INDICATES FEW OR NO CLOUDS BELOW 12,000 FEET
WITH NO SIGNIFICANT WEATHER AND/OR OBSTRUCTIONS TO VISIBILITY.

WYZ001-191400-
YELLOWSTONE NATIONAL PARK

CITY           SKY/WX    TMP DP  RH WIND       PRES   REMARKS
LK YELLOWSTONE   N/A     18  15  88 W3        30.06R
W YELLOWSTONE  NOT AVBL

$$
WYZ002>013-054>058-071-098>099-191400-
NORTHERN WYOMING

CITY           SKY/WX    TMP DP  RH WIND       PRES   REMARKS
JACKSON        CLEAR     28  23  80 E3        30.05R
CODY           CLEAR     32  23  69 SW3       29.99R
GREYBULL       PTCLDY    32  28  85 CALM      29.98R
WORLAND        CLEAR     31  27  85 CALM      29.98R
SHERIDAN         N/A     39  23  52 CALM        N/A
BUFFALO        PTCLDY    35  26  69 N7        30.03R WCI  29
GILLETTE       CLEAR     34  27  75 SW8       30.02R WCI  27
HULETT         FAIR      36  21  55 SW6       30.03  WCI  31
NEWCASTLE      FAIR      36  18  48 NW7       30.03  WCI  30

$$
WYZ014>020-022>026-101>103-191400-
CENTRAL WYOMING

CITY           SKY/WX    TMP DP  RH WIND       PRES   REMARKS
BIG PINEY      PTCLDY    20  12  71 E5        30.08R WCI  13
PINEDALE       MOSUNNY   23  18  80 NW6       30.08S WCI  16
DUBOIS         FAIR      28  12  50 NW9       30.01R WCI  20
LANDER         CLEAR     36  17  46 N3        29.97R
RIVERTON       CLEAR     37  14  38 E5        29.99R WCI  33
CASPER         PTCLDY    26  24  92 W3        30.03R
DOUGLAS        PTCLDY    33  30  88 CALM      30.04R

$$
WYZ021-027>030-104>119-191400-
SOUTHERN WYOMING

CITY           SKY/WX    TMP DP  RH WIND       PRES   REMARKS
EVANSTON       PTCLDY    38  31  76 N3        30.07R
FORT BRIDGER   FAIR      41  23  48 CALM      30.10R
ROCK SPRINGS   CLOUDY    40  28  62 CALM      30.07R
DIXON          CLOUDY    37  32  82 CALM      30.10S
RAWLINS        MOCLDY    40  27  59 W7        30.07R
SARATOGA       FAIR      32  28  86 SE3       30.09R
LARAMIE        CLOUDY    42  30  62 W12       30.07R
CHEYENNE       CLOUDY    43  34  70 N14G20    30.02R
TORRINGTON     CLOUDY    44  26  49 NW10      30.02R
PINE BLUFFS    FAIR      41  34  75 N10       30.03R

$$



USA.gov is the U.S. government's official web portal to all federal, state and local government web resources and services.